Hourly Weather Chabrecy

Today, 25 June, Friday

Time Temperature Precipitation Wind Pressure Humidity
00:00 +27°C° 0 mm 4 mps 754 mmHg 29%
01:00 +26°C° 0 mm 4 mps 754 mmHg 30%
02:00 +26°C° 0 mm 4 mps 754 mmHg 31%
03:00 +25°C° 0 mm 4 mps 754 mmHg 33%
04:00 +25°C° 0 mm 3 mps 754 mmHg 37%
05:00 +25°C° 0 mm 3 mps 754 mmHg 42%
06:00 +25°C° 0 mm 3 mps 754 mmHg 47%
07:00 +27°C° 0 mm 3 mps 754 mmHg 41%
08:00 +29°C° 0 mm 3 mps 754 mmHg 36%
09:00 +33°C° 0 mm 3 mps 754 mmHg 30%
10:00 +34°C° 0 mm 3 mps 754 mmHg 27%
11:00 +36°C° 0 mm 4 mps 754 mmHg 23%
12:00 +37°C° 0 mm 4 mps 754 mmHg 20%
13:00 +38°C° 0 mm 4 mps 754 mmHg 19%
14:00 +38°C° 0 mm 3 mps 753 mmHg 18%
15:00 +39°C° 0 mm 3 mps 753 mmHg 18%
16:00 +38°C° 0 mm 3 mps 753 mmHg 20%
17:00 +38°C° 0 mm 2 mps 752 mmHg 23%
18:00 +38°C° 0 mm 2 mps 752 mmHg 25%
19:00 +35°C° 0 mm 2 mps 752 mmHg 29%
20:00 +32°C° 0 mm 2 mps 752 mmHg 32%
21:00 +29°C° 0 mm 3 mps 752 mmHg 36%
22:00 +29°C° 0 mm 3 mps 752 mmHg 36%
23:00 +28°C° 0 mm 2 mps 751 mmHg 35%

Tomorrow, 26 June, Saturday

Time Temperature Precipitation Wind Pressure Humidity
00:00 +27°C° 0 mm 2 mps 751 mmHg 35%
01:00 +26°C° 0 mm 2 mps 751 mmHg 36%
02:00 +26°C° 0 mm 2 mps 751 mmHg 36%
03:00 +25°C° 0 mm 2 mps 751 mmHg 37%
04:00 +25°C° 0 mm 2 mps 751 mmHg 40%
05:00 +25°C° 0 mm 3 mps 751 mmHg 43%
06:00 +25°C° 0 mm 3 mps 752 mmHg 47%
07:00 +27°C° 0 mm 3 mps 752 mmHg 44%
08:00 +28°C° 0 mm 3 mps 752 mmHg 42%
09:00 +30°C° 0 mm 3 mps 752 mmHg 40%
10:00 +33°C° 0 mm 3 mps 752 mmHg 37%
11:00 +34°C° 0 mm 3 mps 752 mmHg 35%
12:00 +35°C° 0 mm 3 mps 752 mmHg 32%
13:00 +36°C° 0.1 mm 3 mps 752 mmHg 31%
14:00 +36°C° 0.1 mm 3 mps 751 mmHg 30%
15:00 +37°C° 0.1 mm 3 mps 751 mmHg 30%
16:00 +36°C° 0.1 mm 3 mps 751 mmHg 32%
17:00 +36°C° 0.1 mm 3 mps 751 mmHg 35%
18:00 +35°C° 0.1 mm 3 mps 750 mmHg 37%
19:00 +33°C° 0 mm 3 mps 750 mmHg 43%
20:00 +30°C° 0 mm 3 mps 751 mmHg 48%
21:00 +28°C° 0 mm 3 mps 751 mmHg 53%
22:00 +28°C° 0 mm 3 mps 750 mmHg 55%
23:00 +27°C° 0 mm 3 mps 750 mmHg 56%

Day after tomorrow, 27 June, Sunday

Time Temperature Precipitation Wind Pressure Humidity
00:00 +26°C° 0 mm 3 mps 750 mmHg 58%
01:00 +25°C° 0 mm 3 mps 750 mmHg 62%
02:00 +25°C° 0 mm 4 mps 751 mmHg 66%
03:00 +23°C° 0 mm 4 mps 751 mmHg 69%
04:00 +23°C° 0 mm 4 mps 751 mmHg 70%
05:00 +25°C° 0 mm 3 mps 751 mmHg 72%
06:00 +25°C° 0 mm 3 mps 752 mmHg 73%
07:00 +26°C° 0 mm 3 mps 752 mmHg 67%
08:00 +28°C° 0 mm 4 mps 752 mmHg 61%
09:00 +30°C° 0 mm 5 mps 752 mmHg 56%
10:00 +32°C° 0 mm 5 mps 752 mmHg 52%
11:00 +33°C° 0 mm 4 mps 752 mmHg 49%
12:00 +34°C° 0 mm 4 mps 752 mmHg 45%
13:00 +35°C° 0 mm 4 mps 752 mmHg 44%
14:00 +35°C° 0 mm 4 mps 752 mmHg 43%
15:00 +35°C° 0 mm 4 mps 752 mmHg 42%
16:00 +35°C° 0 mm 4 mps 752 mmHg 44%
17:00 +34°C° 0 mm 4 mps 752 mmHg 46%
18:00 +34°C° 0 mm 3 mps 752 mmHg 48%
19:00 +33°C° 0 mm 3 mps 752 mmHg 53%
20:00 +30°C° 0 mm 3 mps 752 mmHg 59%
21:00 +29°C° 0 mm 3 mps 753 mmHg 64%
22:00 +28°C° 0 mm 3 mps 753 mmHg 66%
23:00 +27°C° 0 mm 4 mps 753 mmHg 68%

28 June, Monday

Time Temperature Precipitation Wind Pressure Humidity
00:00 +27°C° 0 mm 4 mps 752 mmHg 69%
01:00 +27°C° 0 mm 4 mps 753 mmHg 72%
02:00 +26°C° 0 mm 4 mps 753 mmHg 74%
03:00 +26°C° 0 mm 4 mps 753 mmHg 76%
04:00 +26°C° 0 mm 4 mps 753 mmHg 77%
05:00 +26°C° 0 mm 4 mps 754 mmHg 78%
06:00 +25°C° 0 mm 4 mps 754 mmHg 79%
07:00 +27°C° 0 mm 4 mps 754 mmHg 72%
08:00 +28°C° 0 mm 4 mps 754 mmHg 66%
09:00 +30°C° 0 mm 4 mps 754 mmHg 60%
10:00 +32°C° 0 mm 4 mps 754 mmHg 55%
11:00 +33°C° 0 mm 4 mps 754 mmHg 51%
12:00 +34°C° 0 mm 4 mps 754 mmHg 46%
13:00 +34°C° 0 mm 4 mps 754 mmHg 44%
14:00 +35°C° 0 mm 5 mps 754 mmHg 42%
15:00 +35°C° 0 mm 5 mps 753 mmHg 40%
16:00 +35°C° 0 mm 5 mps 753 mmHg 42%
17:00 +34°C° 0 mm 4 mps 753 mmHg 44%
18:00 +34°C° 0 mm 4 mps 753 mmHg 45%
19:00 +31°C° 0 mm 3 mps 753 mmHg 51%
20:00 +30°C° 0 mm 3 mps 753 mmHg 57%
21:00 +28°C° 0 mm 2 mps 753 mmHg 63%
22:00 +28°C° 0 mm 2 mps 753 mmHg 65%
23:00 +27°C° 0 mm 2 mps 754 mmHg 67%

29 June, Tuesday

Time Temperature Precipitation Wind Pressure Humidity
00:00 +26°C° 0 mm 2 mps 754 mmHg 69%
01:00 +26°C° 0 mm 2 mps 754 mmHg 73%
02:00 +25°C° 0 mm 3 mps 754 mmHg 76%
03:00 +25°C° 0 mm 3 mps 753 mmHg 80%
04:00 +25°C° 0 mm 3 mps 754 mmHg 78%
05:00 +25°C° 0 mm 3 mps 754 mmHg 77%
06:00 +25°C° 0 mm 3 mps 754 mmHg 75%
07:00 +26°C° 0 mm 3 mps 754 mmHg 71%
08:00 +27°C° 0 mm 4 mps 754 mmHg 66%
09:00 +29°C° 0 mm 4 mps 754 mmHg 62%
10:00 +30°C° 0 mm 4 mps 754 mmHg 57%
11:00 +32°C° 0 mm 4 mps 754 mmHg 52%
12:00 +33°C° 0 mm 5 mps 754 mmHg 46%
13:00 +34°C° 0 mm 4 mps 754 mmHg 44%
14:00 +34°C° 0 mm 4 mps 754 mmHg 41%
15:00 +35°C° 0 mm 4 mps 753 mmHg 38%
16:00 +34°C° 0 mm 4 mps 753 mmHg 43%
17:00 +33°C° 0 mm 5 mps 753 mmHg 47%
18:00 +32°C° 0 mm 5 mps 753 mmHg 51%
19:00 +30°C° 0 mm 4 mps 753 mmHg 57%
20:00 +28°C° 0 mm 4 mps 754 mmHg 63%
21:00 +27°C° 0 mm 3 mps 754 mmHg 69%
22:00 +26°C° 0 mm 3 mps 754 mmHg 71%
23:00 +25°C° 0 mm 2 mps 754 mmHg 73%

30 June, Wednesday

Time Temperature Precipitation Wind Pressure Humidity
00:00 +25°C° 0 mm 2 mps 754 mmHg 75%
01:00 +25°C° 0 mm 2 mps 754 mmHg 76%
02:00 +24°C° 0 mm 2 mps 754 mmHg 76%
03:00 +24°C° 0 mm 2 mps 754 mmHg 77%
04:00 +24°C° 0 mm 2 mps 754 mmHg 76%
05:00 +24°C° 0 mm 2 mps 754 mmHg 74%
06:00 +25°C° 0 mm 2 mps 755 mmHg 73%
07:00 +26°C° 0 mm 2 mps 755 mmHg 66%
08:00 +27°C° 0 mm 3 mps 755 mmHg 59%
09:00 +29°C° 0 mm 3 mps 755 mmHg 52%
10:00 +30°C° 0 mm 4 mps 755 mmHg 48%
11:00 +32°C° 0 mm 4 mps 755 mmHg 44%
12:00 +33°C° 0 mm 4 mps 755 mmHg 40%
13:00 +33°C° 0 mm 4 mps 754 mmHg 38%
14:00 +34°C° 0 mm 4 mps 754 mmHg 36%
15:00 +34°C° 0 mm 5 mps 754 mmHg 33%
16:00 +34°C° 0 mm 5 mps 754 mmHg 35%
17:00 +33°C° 0 mm 5 mps 754 mmHg 37%
18:00 +32°C° 0 mm 5 mps 754 mmHg 40%
19:00 +29°C° 0 mm 4 mps 755 mmHg 44%
20:00 +28°C° 0 mm 3 mps 755 mmHg 48%
21:00 +26°C° 0 mm 3 mps 755 mmHg 52%
22:00 +25°C° 0 mm 3 mps 755 mmHg 53%
23:00 +25°C° 0 mm 3 mps 755 mmHg 55%
Show more

We Need Your Consent

Meteoprog and our Service Providers may store and access personal data such as cookies, device identifiers or other similar technologies on your device and process such data to personalise content and ads, as well as provide social media features and to analyse the traffic.

  • Store and/or access information on your device

    Cookies, device identifiers or other information can be stored or accessed on your device for the purposes indicated above.

  • Personalised ads and content, ad and content measurement, audience insights, and products development

    Ads and content can be personalised based on a profile. More data can be added to better personalise ads and content. Ad and content performance can be measured. Insights about the audience who saw the ads and content can be derived. Such data can be used to develop or improve user’s experience, systems and software.

By clicking ‘I Agree’ you will allow the use of indicated cookies, device identifiers, web beacons or other similar technologies. Your settings can be changed in the browser on your device.

For certain purposes, legitimate interests may be relied on, rather than consent. You can read more about this in our Privacy and Cookie Policy.